Weather History for New Orleans Lakefront, LA

Change the Weather History Date:

Friday, February 21, 2014

  Actual Average Record
Temperature  
Mean Temperature 61 °F 58 °F  
Max Temperature 72 °F 67 °F 80 °F (2005)
Min Temperature 50 °F 49 °F 31 °F (1978)
Degree Days  
Heating Degree Days 4 8  
Month to date heating degree days 212 203  
Since 1 July heating degree days 1299 1059  
Cooling Degree Days 0 1  
Month to date cooling degree days 24 21  
Year to date cooling degree days 24 37  
Growing Degree Days 12 (Base 50)    
Moisture  
Dew Point 49 °F    
Average Humidity 62    
Maximum Humidity 97    
Minimum Humidity 27    
Precipitation  
Precipitation 0.77 in 0.18 in 4.75 in (1961)
Month to date precipitation 3.62 4.10  
Year to date precipitation 6.34 9.25  
Snow  
Snow 0.00 in - - ()
Month to date snowfall T  
Since 1 July snowfall T  
Snow Depth 0.00 in    
Sea Level Pressure  
Sea Level Pressure 30.03 in    
Wind  
Wind Speed 10 mph (NW)    
Max Wind Speed 32 mph    
Max Gust Speed 42 mph    
Visibility 7 miles    
Events Rain , Thunderstorm    
T = Trace of Precipitation, MM = Missing Value Source: NWS Daily Summary

Daily Weather History Graph

Daily Weather History Graph

Search for Another Location

Airport:

Trip Planner

Search our weather history database for the weather conditions in past years. The results will help you decide how hot, cold, wet, or windy it might be!

Date:

Astronomy

Feb. 21, 2014 Rise Set
Actual Time 6:34 AM CST 5:53 PM CST
Civil Twilight 6:10 AM CST 6:17 PM CST
Nautical Twilight 5:42 AM CST 6:45 PM CST
Astronomical Twilight 5:14 AM CST 7:13 PM CST
Moon No Moon Rise 10:27 AM CST (2/21)
Length of Visible Light 12h 07m
Length of Day
11h 19m
Waning Gibbous, 60% of the Moon is Illuminated
Feb 21
Waning Gibbous
Feb 22
Last Quarter
Mar 1
New
Mar 8
First Quarter
Mar 16
Full

Hourly Weather History & Observations

Time (CST) Temp. Dew Point Humidity Pressure Visibility Wind Dir Wind Speed Gust Speed Precip Events Conditions
12:11 AM 71.1 °F 69.1 °F 93% 29.90 in 6.0 mi SW 24.2 mph - 0.02 in Rain , Thunderstorm Light Rain
12:26 AM 70.0 °F 69.1 °F 97% 29.90 in 2.0 mi SW 21.9 mph - 0.14 in Rain , Thunderstorm Rain
12:33 AM 70.0 °F 68.0 °F 93% 29.90 in 3.0 mi SW 19.6 mph - 0.16 in Rain , Thunderstorm Rain
12:39 AM 70.0 °F 69.1 °F 97% 29.90 in 5.0 mi SW 21.9 mph 33.4 mph 0.18 in Rain Light Rain
12:53 AM 70.0 °F 68.0 °F 93% 29.88 in 6.0 mi SW 18.4 mph - 0.20 in Rain , Thunderstorm Light Rain
1:16 AM 63.0 °F 61.0 °F 93% 29.96 in 2.5 mi WNW 20.7 mph 28.8 mph 0.10 in Rain , Thunderstorm Heavy Rain
1:18 AM 62.1 °F 60.1 °F 93% 29.96 in 1.8 mi WNW 25.3 mph 33.4 mph 0.17 in Rain , Thunderstorm Heavy Thunderstorms and Rain
1:24 AM 59.0 °F 57.9 °F 96% 29.93 in 1.0 mi NNW 46.0 mph 55.2 mph 0.26 in Rain , Thunderstorm Heavy Thunderstorms and Rain
1:31 AM 57.9 °F 57.0 °F 97% 29.96 in 1.5 mi NNW 35.7 mph 55.2 mph 0.29 in Rain , Thunderstorm Thunderstorms and Rain
1:33 AM 57.9 °F 57.0 °F 97% 29.95 in 1.5 mi NNW 35.7 mph 55.2 mph 0.30 in Rain , Thunderstorm Rain
1:49 AM 57.2 °F 57.2 °F 100% 29.97 in 3.0 mi NNW 26.5 mph - 0.39 in Rain , Thunderstorm Light Rain
1:53 AM 57.9 °F 55.9 °F 93% 29.94 in 5.0 mi North 25.3 mph - 0.39 in Rain , Thunderstorm Light Rain
2:13 AM 57.9 °F 55.9 °F 93% 29.99 in 8.0 mi NNW 21.9 mph - 0.01 in Rain Light Rain
2:26 AM 57.9 °F 55.9 °F 93% 30.00 in 5.0 mi NNW 21.9 mph - 0.03 in Rain , Thunderstorm Light Rain
2:44 AM 57.0 °F 54.0 °F 89% 30.00 in 4.0 mi NNW 28.8 mph 36.8 mph 0.06 in Rain Light Rain
2:53 AM 57.0 °F 52.0 °F 83% 29.99 in 5.0 mi NNW 25.3 mph 34.5 mph 0.07 in Rain Light Rain
3:53 AM 55.9 °F 48.9 °F 77% 30.03 in 10.0 mi North 29.9 mph 34.5 mph 0.01 in   Overcast
4:53 AM 54.0 °F 41.0 °F 62% 30.06 in 10.0 mi North 25.3 mph 33.4 mph N/A   Overcast
5:53 AM 54.0 °F 39.9 °F 59% 30.07 in 10.0 mi North 21.9 mph 29.9 mph N/A   Overcast
6:53 AM 53.1 °F 39.9 °F 61% 30.10 in 10.0 mi NNE 23.0 mph - N/A   Clear
7:53 AM 54.0 °F 39.0 °F 57% 30.11 in 10.0 mi North 18.4 mph - N/A   Clear
8:53 AM 55.0 °F 39.0 °F 55% 30.13 in 10.0 mi North 17.3 mph - N/A   Clear
9:53 AM 57.0 °F 35.1 °F 44% 30.14 in 10.0 mi NNE 15.0 mph - N/A   Clear
10:53 AM 59.0 °F 34.0 °F 39% 30.14 in 10.0 mi NE 10.4 mph - N/A   Clear
11:53 AM 60.1 °F 30.0 °F 32% 30.12 in 10.0 mi NNE 8.1 mph - N/A   Clear
12:53 PM 62.1 °F 30.9 °F 31% 30.09 in 10.0 mi NNE 4.6 mph - N/A   Clear
1:53 PM 61.0 °F 34.0 °F 36% 30.08 in 10.0 mi West 6.9 mph - N/A   Clear
2:53 PM 61.0 °F 37.0 °F 41% 30.07 in 10.0 mi West 10.4 mph - N/A   Clear
3:53 PM 61.0 °F 37.0 °F 41% 30.06 in 10.0 mi West 10.4 mph - N/A   Clear
4:53 PM 60.1 °F 41.0 °F 49% 30.07 in 10.0 mi West 8.1 mph - N/A   Clear
5:53 PM 59.0 °F 46.0 °F 62% 30.06 in 10.0 mi West 5.8 mph - N/A   Clear
6:53 PM 59.0 °F 39.9 °F 49% 30.08 in 6.0 mi SW 3.5 mph - N/A   Haze
7:53 PM 59.0 °F 36.0 °F 42% 30.09 in 10.0 mi Calm Calm - N/A   Clear
8:53 PM 57.0 °F 46.9 °F 69% 30.09 in 10.0 mi NW 4.6 mph - N/A   Clear
9:53 PM 57.0 °F 46.0 °F 67% 30.10 in 10.0 mi NW 3.5 mph - N/A   Clear
10:53 PM 55.0 °F 45.0 °F 69% 30.10 in 10.0 mi North 6.9 mph - N/A   Clear
11:53 PM 55.9 °F 48.9 °F 77% 30.10 in 10.0 mi NNE 8.1 mph - N/A   Clear